Cape Girardeau, MO

9:27 PM CDT on April 28, 2017 (GMT -0500)
Cape Girardeau Regional

Weather History for KCGI - December, 2011

Change the Weather History Date:

Wednesday, December 21, 2011

  Actual Average Record
Temperature  
Mean Temperature 47 °F 34 °F  
Max Temperature 56 °F 43 °F 68 °F (1967)
Min Temperature 38 °F 26 °F -7 °F (1989)
Degree Days  
Heating Degree Days 18 30  
Month to date heating degree days 502 587  
Since 1 July heating degree days 1227 1438  
Cooling Degree Days 0 0  
Month to date cooling degree days 0 0  
Year to date cooling degree days 1698 1453  
Moisture  
Dew Point 44 °F    
Average Humidity 86    
Maximum Humidity 100    
Minimum Humidity 71    
Precipitation  
Precipitation 0.00 in 0.13 in 4.12 in (2013)
Month to date precipitation 4.84 2.97  
Year to date precipitation 73.58 45.53  
Sea Level Pressure  
Sea Level Pressure 29.85 in    
Wind  
Wind Speed 9 mph (SW)    
Max Wind Speed 20 mph    
Max Gust Speed 25 mph    
Visibility 9 miles    
Events Fog    
T = Trace of Precipitation, MM = Missing Value Source: NWS Daily Summary

Daily Weather History Graph

Daily Weather History Graph

Search for Another Location

Airport or City:

Trip Planner

Search our weather history database for the weather conditions in past years. The results will help you decide how hot, cold, wet, or windy it might be!

Date:

Astronomy

Dec. 21, 2011 Rise Set
Actual Time 7:08 AM CST 4:44 PM CST
Civil Twilight 6:39 AM CST 5:13 PM CST
Nautical Twilight 6:06 AM CST 5:46 PM CST
Astronomical Twilight 5:34 AM CST 6:17 PM CST
Moon 3:42 AM CST (12/21) 2:02 PM CST (12/21)
Length of Visible Light 10h 34m
Length of Day
9h 35m
Waning Crescent, 12% of the Moon is Illuminated
Dec 21
Waning Crescent
Dec 24
New
Jan 1
First Quarter
Jan 9
Full
Jan 16
Last Quarter

Hourly Weather History & Observations

Time (CST) Temp. Windchill Dew Point Humidity Pressure Visibility Wind Dir Wind Speed Gust Speed Precip Events Conditions
12:02 AM 51.8 °F - 51.8 °F 100% 29.74 in 0.2 mi West 3.5 mph - N/A Fog Fog
12:10 AM 51.8 °F - 51.8 °F 100% 29.74 in 0.5 mi Calm Calm - N/A Fog Fog
12:17 AM 53.6 °F - 51.8 °F 94% 29.74 in 1.2 mi SW 4.6 mph - N/A   Overcast
12:21 AM 53.6 °F - 51.8 °F 94% 29.74 in 3.0 mi SW 5.8 mph - N/A   Overcast
12:53 AM 55.0 °F - 54.0 °F 96% 29.73 in 9.0 mi SW 8.1 mph - N/A   Mostly Cloudy
1:13 AM 55.4 °F - 53.6 °F 94% 29.73 in 10.0 mi SW 10.4 mph - N/A   Mostly Cloudy
1:53 AM 54.0 °F - 53.1 °F 97% 29.73 in 10.0 mi SW 10.4 mph - N/A   Mostly Cloudy
2:20 AM 55.4 °F - 53.6 °F 94% 29.73 in 10.0 mi SW 9.2 mph - N/A   Scattered Clouds
2:53 AM 54.0 °F - 51.1 °F 90% 29.73 in 10.0 mi SW 10.4 mph - N/A   Partly Cloudy
3:09 AM 53.6 °F - 51.8 °F 94% 29.73 in 10.0 mi SSW 9.2 mph - N/A   Mostly Cloudy
3:42 AM 53.6 °F - 50.0 °F 88% 29.73 in 10.0 mi SW 13.8 mph - N/A   Mostly Cloudy
3:53 AM 53.1 °F - 48.9 °F 86% 29.73 in 10.0 mi SW 12.7 mph 21.9 mph N/A   Mostly Cloudy
4:07 AM 51.8 °F - 48.2 °F 88% 29.73 in 10.0 mi SW 13.8 mph - N/A   Overcast
4:14 AM 51.8 °F - 46.4 °F 82% 29.74 in 10.0 mi SW 13.8 mph - N/A   Mostly Cloudy
4:53 AM 48.0 °F - 42.1 °F 80% 29.76 in 10.0 mi WSW 15.0 mph - N/A   Partly Cloudy
5:53 AM 45.0 °F 39.3 °F 39.9 °F 82% 29.80 in 10.0 mi WSW 11.5 mph - N/A   Partly Cloudy
6:49 AM 44.6 °F 38.4 °F 41.0 °F 87% 29.82 in 10.0 mi WSW 12.7 mph - N/A   Overcast
6:53 AM 45.0 °F 37.9 °F 41.0 °F 86% 29.82 in 10.0 mi WSW 16.1 mph - N/A   Mostly Cloudy
7:08 AM 44.6 °F 37.8 °F 39.2 °F 81% 29.83 in 10.0 mi WSW 15.0 mph - N/A   Mostly Cloudy
7:53 AM 46.0 °F 39.6 °F 41.0 °F 83% 29.86 in 10.0 mi WSW 15.0 mph - N/A   Scattered Clouds
8:01 AM 46.4 °F 40.7 °F 42.8 °F 87% 29.86 in 10.0 mi WSW 12.7 mph 20.7 mph N/A   Mostly Cloudy
8:53 AM 46.9 °F - 42.1 °F 83% 29.89 in 10.0 mi WSW 12.7 mph - N/A   Overcast
9:53 AM 46.4 °F 41.9 °F 42.8 °F 87% 29.92 in 10.0 mi SSW 9.2 mph - N/A   Overcast
10:53 AM 48.0 °F - 43.0 °F 83% 29.92 in 10.0 mi SW 8.1 mph - N/A   Overcast
11:53 AM 48.0 °F - 42.1 °F 80% 29.91 in 10.0 mi West 8.1 mph - N/A   Overcast
12:53 PM 48.9 °F - 41.0 °F 74% 29.90 in 10.0 mi WSW 11.5 mph - N/A   Overcast
1:53 PM 50.0 °F - 41.0 °F 71% 29.90 in 10.0 mi WSW 10.4 mph - N/A   Overcast
2:53 PM 48.9 °F - 39.9 °F 71% 29.91 in 10.0 mi SW 9.2 mph - N/A   Overcast
3:53 PM 48.0 °F - 41.0 °F 77% 29.92 in 10.0 mi SW 8.1 mph - N/A   Overcast
4:53 PM 46.9 °F - 39.9 °F 77% 29.94 in 10.0 mi SSW 5.8 mph - N/A   Overcast
5:53 PM 46.9 °F - 39.0 °F 74% 29.96 in 10.0 mi SSW 8.1 mph - N/A   Overcast
6:53 PM 46.0 °F 41.9 °F 39.0 °F 76% 29.98 in 10.0 mi SSW 8.1 mph - N/A   Overcast
7:53 PM 45.0 °F 40.6 °F 39.0 °F 80% 30.00 in 10.0 mi SSW 8.1 mph - N/A   Overcast
8:40 PM 42.8 °F 40.1 °F 37.4 °F 81% 29.99 in 10.0 mi South 4.6 mph - N/A   Scattered Clouds
8:53 PM 42.1 °F 38.4 °F 37.0 °F 82% 29.99 in 10.0 mi South 5.8 mph - N/A   Clear
9:53 PM 39.9 °F 37.8 °F 37.0 °F 89% 30.00 in 10.0 mi South 3.5 mph - N/A   Clear
10:31 PM 39.2 °F 35.0 °F 37.4 °F 93% 30.01 in 10.0 mi SSE 5.8 mph - N/A   Mostly Cloudy
10:53 PM 41.0 °F 38.0 °F 39.0 °F 93% 30.02 in 10.0 mi South 4.6 mph - N/A   Overcast
11:53 PM 43.0 °F 40.3 °F 39.0 °F 86% 30.03 in 10.0 mi South 4.6 mph - N/A   Overcast